Regional Weather Roundup
Issued by NWS Columbia, SC

Home | Current Version | Previous Version | Text Only | Print | Product List | Glossary On
Versions: 1 2 3 4 5 6 7 8 9 10 11 12 13 14 15 16 17 18 19 20 21 22 23 24 25 26 27 28 29 30 31 32 33 34 35 36 37 38 39 40 41 42 43 44 45 46 47 48 49 50
000
ASUS42 KCAE 210910
RWRCAE
REGIONAL WEATHER ROUNDUP
NATIONAL WEATHER SERVICE COLUMBIA SC
500 AM EDT TUE OCT 21 2014

NOTE: "FAIR" INDICATES FEW OR NO CLOUDS BELOW 12,000 FEET WITH NO
SIGNIFICANT WEATHER AND/OR OBSTRUCTIONS TO VISIBILITY.

NOT ALL STATIONS ARE QUALITY CONTROLLED BY THE NATIONAL
WEATHER SERVICE. USE DATA WITH CAUTION...ESPECIALLY
DEWPOINT OBSERVATIONS.

SCZ001>056-GAZ040-063>065-077-211000-
...UPSTATE SOUTH CAROLINA...

CITY           SKY/WX    TMP DP  RH WIND       PRES   REMARKS
ANDERSON       CLEAR     47  45  93 S3        29.96F
LIBERTY          N/A     46  46 100 MISG      29.95F FOG
SPARTANBURG    FAIR      54 N/A N/A CALM      29.94F
CLEMSON        CLEAR     54  48  80 N3        29.97F
GREENVILLE     CLEAR     52  49  89 CALM      29.95F
GREENWOOD      CLEAR     52  50  93 SW5       29.97F
GREER          CLEAR     49  48  97 SW3       29.94F FOG
ROCK HILL      CLEAR     48  47  96 CALM      29.95S
LAURENS        FAIR      52 N/A N/A W5        29.96S


...CENTRAL SOUTH CAROLINA...

CITY           SKY/WX    TMP DP  RH WIND       PRES   REMARKS
COLUMBIA APT   CLEAR     51  47  86 CALM      29.95S
COLUMBIA OWENS CLEAR     53  50  89 CALM      29.96S
DARLINGTON     CLEAR     52  46  82 CALM      29.95R
FLORENCE       CLEAR     54  52  93 CALM      29.93F
MCENTIRE ANGB  CLEAR     49  49  99 NW2       29.95S
ORANGEBURG     CLEAR     56  52  86 NW3       29.95S
SUMTER SHAW    CLEAR     55  52  91 SW1       29.93S
NEWBERRY       FAIR      50 N/A N/A SW3       29.98S
AIKEN          FAIR      48  48 100 CALM      30.00R
BARNWELL       FAIR      52  50  93 CALM      29.97R
MANNING        FAIR      55 N/A N/A CALM      29.95S
CAMDEN         FAIR      50  48  93 CALM      29.95F
LANCASTER      RAIN      52  52 100 CALM      29.95S
WINNSBORO      FAIR      54  52  94 SW5       29.95S


...EASTERN AND COASTAL SOUTH CAROLINA...

CITY           SKY/WX    TMP DP  RH WIND       PRES   REMARKS
MYRTLE BEACH   PTCLDY    59  55  88 N3        29.94S
N MYRTLE BCH   CLEAR     57  55  93 CALM      29.93S
CONWAY         FAIR      52  52 100 CALM      29.94S
MARION         FAIR      55  55 100 CALM      29.94F
HARTSVILLE     FAIR      54  52  94 CALM      29.95R
FLORENCE       CLEAR     54  52  93 CALM      29.93F
DARLINGTON     CLEAR     52  46  82 CALM      29.95R
CHARLESTON APT PTCLDY    63  60  90 CALM      29.95R
MOUNT PLEASANT PTSUNNY   63  61  94 CALM      29.94S
WALTERBORO     PTSUNNY   61 N/A N/A CALM      29.96S
BEAUFORT       MOCLDY    64  63  96 CALM      29.95S


...EASTERN GEORGIA...

CITY           SKY/WX    TMP DP  RH WIND       PRES   REMARKS
AUGUSTA BUSH F CLEAR     46  45  96 CALM      29.97S
AUGUSTA DANIEL CLEAR     58  50  75 CALM      29.97S
THOMSON        CLEAR     50  50 100 CALM      30.01S
WASHINGTON     FAIR      59  57  94 W5        29.97S
CLAXTON        FAIR      59  59 100 CALM      29.96S FOG
SYLVANIA       SUNNY     58  57  97 CALM      29.97S
STATESBORO     CLEAR     54  54 100 CALM      29.96S
SAVANNAH       MOCLDY    66  62  87 CALM      29.96R


...SOUTHERN NORTH CAROLINA...

CITY           SKY/WX    TMP DP  RH WIND       PRES   REMARKS
CHARLOTTE      CLEAR     52  48  86 CALM      29.94F
MONROE         CLEAR     51  49  92 SW3       29.94S
WADESBORO      SUNNY     49  47  92 CALM      29.93F
ROCKINGHAM     SUNNY     52  50  95 CALM      29.93S
RUTHERFORDTON  CLEAR     47  47 100 CALM      29.96S
ASHEVILLE      PTCLDY    42  42 100 CALM      29.99S FOG

$$


USA.gov is the U.S. government's official web portal to all federal, state and local government web resources and services.